PAY7260 KMIA-KMEM

Flight info

Callsign PAY7260
Flight time N/A
Altitude 38000
Route HURCN4 SMELZ Q116 GOOGY WASER VANZE3
Aircraft A333/H-SDE3GHIJ2J3J5M1RVWXY/LB2D1

Departure

Time N/A
Airport Miami International Airport (KMIA)

Arrival

Time 2026-05-03 21:02
Airport Memphis International Airport (KMEM)
Time Latitude Longitude Altitude Speed Heading
2026-05-03 20:15 32.93732 -86.22648 38000 ft 464 kts 322°
2026-05-03 20:15 32.98860 -86.27311 38000 ft 463 kts 322°
2026-05-03 20:16 33.03982 -86.31975 38000 ft 464 kts 322°
2026-05-03 20:16 33.09105 -86.36647 38000 ft 464 kts 322°
2026-05-03 20:17 33.14225 -86.41323 38000 ft 463 kts 322°
2026-05-03 20:17 33.19335 -86.45998 38000 ft 463 kts 322°
2026-05-03 20:18 33.24453 -86.50686 38000 ft 463 kts 322°
2026-05-03 20:18 33.29558 -86.55370 38000 ft 463 kts 322°
2026-05-03 20:19 33.34666 -86.60064 38000 ft 463 kts 322°
2026-05-03 20:19 33.39776 -86.64767 38000 ft 463 kts 322°
2026-05-03 20:20 33.44888 -86.69478 38000 ft 464 kts 322°
2026-05-03 20:20 33.49992 -86.74190 38000 ft 463 kts 322°
2026-05-03 20:21 33.55100 -86.78913 38000 ft 464 kts 322°
2026-05-03 20:21 33.60201 -86.83636 38000 ft 463 kts 322°
2026-05-03 20:22 33.65204 -86.88503 38000 ft 463 kts 315°
2026-05-03 20:22 33.69101 -86.94612 38001 ft 462 kts 301°
2026-05-03 20:23 33.72267 -87.01267 38000 ft 462 kts 298°
2026-05-03 20:23 33.75311 -87.08068 38000 ft 462 kts 298°
2026-05-03 20:24 33.78352 -87.14879 38001 ft 462 kts 298°
2026-05-03 20:24 33.81411 -87.21676 38000 ft 462 kts 298°
2026-05-03 20:25 33.84480 -87.28477 38000 ft 462 kts 298°
2026-05-03 20:25 33.87548 -87.35282 38000 ft 462 kts 298°
2026-05-03 20:26 33.90612 -87.42093 38000 ft 463 kts 298°
2026-05-03 20:26 33.93670 -87.48908 38000 ft 463 kts 298°
2026-05-03 20:27 33.96724 -87.55727 38000 ft 463 kts 298°
2026-05-03 20:27 33.99776 -87.62555 38000 ft 463 kts 298°
2026-05-03 20:28 34.02852 -87.69369 37999 ft 463 kts 301°
2026-05-03 20:28 34.06311 -87.75916 38000 ft 463 kts 303°
2026-05-03 20:29 34.09822 -87.82431 38000 ft 463 kts 303°
2026-05-03 20:29 34.13318 -87.88956 37798 ft 462 kts 302°
2026-05-03 20:29 34.15036 -87.92171 37334 ft 461 kts 302°
2026-05-03 20:30 34.16768 -87.95416 36799 ft 461 kts 302°
2026-05-03 20:30 34.18505 -87.98675 36185 ft 462 kts 302°
2026-05-03 20:30 34.20246 -88.01945 35548 ft 464 kts 302°
2026-05-03 20:30 34.21947 -88.05267 34890 ft 466 kts 301°
2026-05-03 20:31 34.23627 -88.08631 34226 ft 468 kts 301°
2026-05-03 20:31 34.25307 -88.12011 33506 ft 470 kts 301°
2026-05-03 20:31 34.26994 -88.15407 32790 ft 473 kts 301°
2026-05-03 20:31 34.28692 -88.18826 32054 ft 475 kts 301°
2026-05-03 20:32 34.30394 -88.22253 31283 ft 477 kts 301°
2026-05-03 20:32 34.32105 -88.25701 30691 ft 476 kts 301°
2026-05-03 20:32 34.33788 -88.29095 30448 ft 466 kts 301°
2026-05-03 20:32 34.35303 -88.32153 30214 ft 457 kts 301°
2026-05-03 20:33 34.36934 -88.35448 29707 ft 455 kts 301°
2026-05-03 20:33 34.38554 -88.38724 29186 ft 452 kts 301°
2026-05-03 20:33 34.40162 -88.41978 28725 ft 448 kts 301°
2026-05-03 20:33 34.41753 -88.45201 28240 ft 445 kts 301°
2026-05-03 20:34 34.43334 -88.48407 27684 ft 440 kts 301°
2026-05-03 20:34 34.44892 -88.51570 26966 ft 432 kts 301°
2026-05-03 20:34 34.46415 -88.54663 26368 ft 424 kts 301°
2026-05-03 20:34 34.47920 -88.57723 25878 ft 421 kts 301°
2026-05-03 20:35 34.49415 -88.60764 25403 ft 419 kts 301°
2026-05-03 20:35 34.50900 -88.63790 24922 ft 417 kts 301°
2026-05-03 20:35 34.52379 -88.66802 24434 ft 415 kts 300°
2026-05-03 20:35 34.53848 -88.69800 23940 ft 412 kts 300°
2026-05-03 20:36 34.55310 -88.72784 23487 ft 409 kts 300°
2026-05-03 20:36 34.56756 -88.75740 23034 ft 407 kts 300°
2026-05-03 20:36 34.58193 -88.78679 22552 ft 404 kts 300°
2026-05-03 20:36 34.59620 -88.81600 22089 ft 401 kts 300°
2026-05-03 20:37 34.61035 -88.84499 21634 ft 398 kts 300°
2026-05-03 20:37 34.62439 -88.87379 21151 ft 395 kts 300°
2026-05-03 20:37 34.63653 -88.90352 20706 ft 392 kts 290°
2026-05-03 20:37 34.64469 -88.93491 20259 ft 389 kts 285°
2026-05-03 20:38 34.65167 -88.96650 19801 ft 386 kts 284°
2026-05-03 20:38 34.65844 -88.99791 19351 ft 383 kts 284°
2026-05-03 20:38 34.66511 -89.02882 19060 ft 375 kts 284°
2026-05-03 20:38 34.67165 -89.05898 18851 ft 362 kts 284°
2026-05-03 20:39 34.67793 -89.08761 18487 ft 352 kts 285°
2026-05-03 20:39 34.68448 -89.11621 18061 ft 353 kts 285°
2026-05-03 20:39 34.69112 -89.14489 17622 ft 352 kts 285°
2026-05-03 20:39 34.69777 -89.17359 17178 ft 351 kts 285°
2026-05-03 20:40 34.70436 -89.20206 16754 ft 349 kts 285°
2026-05-03 20:40 34.71091 -89.23038 16346 ft 347 kts 285°
2026-05-03 20:40 34.71739 -89.25851 15935 ft 345 kts 285°
2026-05-03 20:40 34.72369 -89.28652 15535 ft 342 kts 285°
2026-05-03 20:41 34.72985 -89.31417 15235 ft 337 kts 285°
2026-05-03 20:41 34.73594 -89.34154 14925 ft 334 kts 285°
2026-05-03 20:41 34.74197 -89.36871 14607 ft 333 kts 285°
2026-05-03 20:41 34.74800 -89.39588 14301 ft 332 kts 285°
2026-05-03 20:42 34.75394 -89.42268 14124 ft 323 kts 285°
2026-05-03 20:42 34.75967 -89.44852 13938 ft 311 kts 285°
2026-05-03 20:42 34.76520 -89.47354 13483 ft 303 kts 285°
2026-05-03 20:42 34.77202 -89.49772 13122 ft 303 kts 295°
2026-05-03 20:43 34.78209 -89.52020 12839 ft 302 kts 301°
2026-05-03 20:43 34.79299 -89.54191 12558 ft 300 kts 301°
2026-05-03 20:43 34.80399 -89.56345 12316 ft 298 kts 301°
2026-05-03 20:43 34.81479 -89.58465 12112 ft 292 kts 301°
2026-05-03 20:44 34.82542 -89.60558 11847 ft 288 kts 301°
2026-05-03 20:44 34.83585 -89.62619 11578 ft 285 kts 301°
2026-05-03 20:44 34.84620 -89.64667 11302 ft 282 kts 301°
2026-05-03 20:44 34.85644 -89.66695 11035 ft 281 kts 301°
2026-05-03 20:45 34.86666 -89.68721 10711 ft 282 kts 301°
2026-05-03 20:45 34.87690 -89.70755 10398 ft 280 kts 301°
2026-05-03 20:45 34.88700 -89.72761 10177 ft 277 kts 301°
2026-05-03 20:45 34.89706 -89.74762 9980 ft 277 kts 301°
2026-05-03 20:46 34.90712 -89.76761 9726 ft 276 kts 301°
2026-05-03 20:46 34.91712 -89.78752 9469 ft 275 kts 301°
2026-05-03 20:46 34.92708 -89.80733 9209 ft 274 kts 301°
2026-05-03 20:46 34.93701 -89.82708 8949 ft 273 kts 301°
2026-05-03 20:47 34.94806 -89.84526 8697 ft 270 kts 316°
2026-05-03 20:47 34.96413 -89.85687 8440 ft 266 kts 345°
2026-05-03 20:47 34.98231 -89.85976 8185 ft 263 kts 357°
2026-05-03 20:47 35.00030 -89.86020 7941 ft 260 kts 359°
2026-05-03 20:48 35.01815 -89.86029 7783 ft 253 kts 359°
2026-05-03 20:48 35.03548 -89.86042 7706 ft 244 kts 359°
2026-05-03 20:48 35.05212 -89.86061 7514 ft 237 kts 359°
2026-05-03 20:48 35.06849 -89.86086 7133 ft 234 kts 359°
2026-05-03 20:49 35.08482 -89.86116 6769 ft 235 kts 359°
2026-05-03 20:49 35.10115 -89.86148 6500 ft 236 kts 358°
2026-05-03 20:49 35.11764 -89.86181 6196 ft 237 kts 358°
2026-05-03 20:49 35.13419 -89.86215 5921 ft 237 kts 358°
2026-05-03 20:50 35.15070 -89.86249 5659 ft 237 kts 358°
2026-05-03 20:50 35.16711 -89.86283 5411 ft 236 kts 358°
2026-05-03 20:50 35.18348 -89.86318 5161 ft 235 kts 358°
2026-05-03 20:50 35.19981 -89.86352 4895 ft 234 kts 358°
2026-05-03 20:51 35.21605 -89.86387 4655 ft 233 kts 358°
2026-05-03 20:51 35.23223 -89.86423 4410 ft 232 kts 358°
2026-05-03 20:51 35.24836 -89.86458 4163 ft 232 kts 358°
2026-05-03 20:51 35.26443 -89.86492 3897 ft 231 kts 358°
2026-05-03 20:52 35.27506 -89.86514 3735 ft 230 kts 358°
2026-05-03 20:52 35.29106 -89.86551 3541 ft 235 kts 358°
2026-05-03 20:52 35.30836 -89.86620 3398 ft 258 kts 357°
2026-05-03 20:52 35.32610 -89.86703 3265 ft 251 kts 357°
2026-05-03 20:53 35.34323 -89.86785 3159 ft 242 kts 357°
2026-05-03 20:53 35.35978 -89.86867 3089 ft 234 kts 356°
2026-05-03 20:53 35.37496 -89.87389 3000 ft 225 kts 326°
2026-05-03 20:53 35.38516 -89.88784 2919 ft 222 kts 293°
2026-05-03 20:54 35.38826 -89.90618 2875 ft 217 kts 272°
2026-05-03 20:54 35.38780 -89.94082 2852 ft 191 kts 268°
2026-05-03 20:54 35.38723 -89.95675 2851 ft 186 kts 263°
2026-05-03 20:55 35.38178 -89.97075 2851 ft 185 kts 225°
2026-05-03 20:55 35.37139 -89.97997 2862 ft 186 kts 211°
2026-05-03 20:55 35.36000 -89.98749 2851 ft 187 kts 204°
2026-05-03 20:55 35.34729 -89.98958 2850 ft 187 kts 173°
2026-05-03 20:56 35.33463 -89.98601 2855 ft 188 kts 164°
2026-05-03 20:56 35.32221 -89.98097 2852 ft 188 kts 165°
2026-05-03 20:56 35.30952 -89.97850 2851 ft 188 kts 178°
2026-05-03 20:56 35.29647 -89.97812 2851 ft 187 kts 180°
2026-05-03 20:57 35.28344 -89.97791 2848 ft 188 kts 180°
2026-05-03 20:57 35.27036 -89.97766 2848 ft 188 kts 179°
2026-05-03 20:57 35.25730 -89.97738 2852 ft 187 kts 179°
2026-05-03 20:57 35.24428 -89.97709 2848 ft 188 kts 179°
2026-05-03 20:58 35.23122 -89.97681 2848 ft 188 kts 179°
2026-05-03 20:58 35.21816 -89.97653 2854 ft 188 kts 180°
2026-05-03 20:58 35.20513 -89.97626 2851 ft 187 kts 180°
2026-05-03 20:58 35.19205 -89.97599 2857 ft 187 kts 179°
2026-05-03 20:59 35.17947 -89.97572 2846 ft 175 kts 180°
2026-05-03 20:59 35.16757 -89.97546 2657 ft 169 kts 180°
2026-05-03 20:59 35.15590 -89.97521 2402 ft 165 kts 180°
2026-05-03 20:59 35.14474 -89.97497 2190 ft 157 kts 180°
2026-05-03 21:00 35.13425 -89.97476 1988 ft 146 kts 180°
2026-05-03 21:00 35.12748 -89.97462 1857 ft 143 kts 180°
2026-05-03 21:00 35.11432 -89.97434 1610 ft 143 kts 180°
2026-05-03 21:00 35.10438 -89.97412 1416 ft 143 kts 180°
2026-05-03 21:01 35.09443 -89.97391 1221 ft 143 kts 180°
2026-05-03 21:01 35.08449 -89.97370 1031 ft 143 kts 180°
2026-05-03 21:01 35.07458 -89.97349 836 ft 142 kts 180°
2026-05-03 21:01 35.06468 -89.97328 649 ft 142 kts 179°
2026-05-03 21:02 35.05487 -89.97307 475 ft 141 kts 180°
2026-05-03 21:02 35.04507 -89.97288 332 ft 137 kts 178°
2026-05-03 21:02 35.03781 -89.97278 331 ft 56 kts 178°
2026-05-03 21:02 35.03498 -89.97271 331 ft 38 kts 179°
2026-05-03 21:03 35.03301 -89.97301 330 ft 23 kts 202°
2026-05-03 21:03 35.03211 -89.97385 329 ft 11 kts 253°
2026-05-03 21:03 35.03256 -89.97436 328 ft 10 kts 346°
2026-05-03 21:03 35.03333 -89.97440 327 ft 12 kts 359°
2026-05-03 21:04 35.03433 -89.97441 327 ft 16 kts 358°
2026-05-03 21:04 35.03557 -89.97444 329 ft 20 kts 359°
2026-05-03 21:04 35.03703 -89.97448 328 ft 23 kts 359°
2026-05-03 21:04 35.03870 -89.97452 330 ft 25 kts 359°
2026-05-03 21:05 35.04054 -89.97455 328 ft 27 kts 359°
2026-05-03 21:05 35.04242 -89.97459 330 ft 27 kts 359°
2026-05-03 21:05 35.04430 -89.97463 329 ft 27 kts 359°
2026-05-03 21:05 35.04614 -89.97466 329 ft 27 kts 359°
2026-05-03 21:06 35.04801 -89.97470 328 ft 27 kts 359°
2026-05-03 21:06 35.04983 -89.97475 328 ft 26 kts 359°
2026-05-03 21:06 35.05167 -89.97479 329 ft 26 kts 359°
2026-05-03 21:06 35.05343 -89.97483 329 ft 26 kts 359°
2026-05-03 21:07 35.05521 -89.97485 331 ft 25 kts 359°
2026-05-03 21:07 35.05688 -89.97488 330 ft 24 kts
2026-05-03 21:07 35.05833 -89.97491 333 ft 18 kts 352°
2026-05-03 21:07 35.05925 -89.97490 331 ft 12 kts 35°
2026-05-03 21:08 35.05939 -89.97395 332 ft 12 kts 91°
2026-05-03 21:08 35.05937 -89.97293 331 ft 12 kts 92°
2026-05-03 21:08 35.05933 -89.97182 332 ft 13 kts 92°
2026-05-03 21:08 35.05929 -89.97066 334 ft 14 kts 93°
2026-05-03 21:09 35.05926 -89.96948 334 ft 14 kts 91°
2026-05-03 21:09 35.05925 -89.96863 334 ft 7 kts 91°
2026-05-03 21:09 35.05943 -89.96819 330 ft 5 kts 34°
2026-05-03 21:09 35.05970 -89.96813 330 ft 4 kts
2026-05-03 21:10 35.05993 -89.96812 330 ft 0 kts